Weather History for Thomson, GA

Change the Weather History Date:

Thursday, March 6, 2014

  Actual Average (KDBN) Record (KDBN)
Temperature  
Mean Temperature 37 °F -  
Max Temperature 40 °F 70 °F 89 °F (1961)
Min Temperature 34 °F 43 °F 19 °F (1960)
Degree Days  
Heating Degree Days 28    
Moisture  
Dew Point 33 °F    
Average Humidity 90    
Maximum Humidity 100    
Minimum Humidity 61    
Precipitation  
Precipitation 0.00 in - - ()
Sea Level Pressure  
Sea Level Pressure 30.15 in    
Wind  
Wind Speed 8 mph (NE)    
Max Wind Speed 17 mph    
Max Gust Speed 24 mph    
Visibility 7 miles    
Events      
Averages and records for this station are not official NWS values.
T = Trace of Precipitation, MM = Missing Value Source: NWS Daily Summary

Daily Weather History Graph

Daily Weather History Graph

Search for Another Location

Airport:

Trip Planner

Search our weather history database for the weather conditions in past years. The results will help you decide how hot, cold, wet, or windy it might be!

Date:

Astronomy

Mar. 06, 2014 Rise Set
Actual Time 6:52 AM EST 6:30 PM EST
Civil Twilight 6:27 AM EST 6:55 PM EST
Nautical Twilight 5:58 AM EST 7:24 PM EST
Astronomical Twilight 5:29 AM EST 7:53 PM EST
Moon 10:15 AM EST (3/6) No Moon Set
Length of Visible Light 12h 28m
Length of Day
11h 38m
Waxing Crescent, 32% of the Moon is Illuminated
Mar 6
Waxing Crescent
Mar 8
First Quarter
Mar 16
Full
Mar 23
Last Quarter
Mar 30
New

Hourly Weather History & Observations

Time (EST) Temp. Windchill Dew Point Humidity Pressure Visibility Wind Dir Wind Speed Gust Speed Precip Events Conditions
12:15 AM 39.9 °F 36.7 °F 39.9 °F 100% 30.21 in 10.0 mi ENE 4.6 mph - N/A   Clear
12:35 AM 40.3 °F 36.3 °F 38.7 °F 94% 30.21 in 10.0 mi East 5.8 mph - N/A   Clear
12:55 AM 39.9 °F 35.1 °F 38.1 °F 93% 30.22 in 10.0 mi East 6.9 mph - N/A   Clear
1:15 AM 39.6 °F 35.4 °F 38.3 °F 95% 30.22 in 10.0 mi East 5.8 mph - N/A   Clear
1:35 AM 39.2 °F 35.9 °F 37.8 °F 95% 30.22 in 10.0 mi East 4.6 mph - N/A   Clear
1:55 AM 38.5 °F 35.0 °F 37.2 °F 95% 30.23 in 10.0 mi NE 4.6 mph - N/A   Clear
2:15 AM 37.8 °F 34.2 °F 36.7 °F 96% 30.22 in 10.0 mi NE 4.6 mph - N/A   Clear
2:35 AM 37.6 °F 35.1 °F 36.1 °F 95% 30.21 in 10.0 mi ENE 3.5 mph - N/A   Clear
2:55 AM 37.0 °F 33.3 °F 35.6 °F 95% 30.20 in 10.0 mi ENE 4.6 mph - N/A   Clear
3:15 AM 36.9 °F 32.2 °F 34.7 °F 92% 30.21 in 10.0 mi ENE 5.8 mph - N/A   Clear
3:35 AM 36.0 °F 32.1 °F 34.2 °F 93% 30.21 in 10.0 mi NE 4.6 mph - N/A   Clear
3:55 AM 36.5 °F 31.8 °F 33.6 °F 89% 30.19 in 10.0 mi NE 5.8 mph - N/A   Clear
4:15 AM 36.9 °F 32.2 °F 33.3 °F 87% 30.19 in 10.0 mi NE 5.8 mph - N/A   Scattered Clouds
4:35 AM 37.0 °F 31.6 °F 33.1 °F 86% 30.18 in 10.0 mi NE 6.9 mph - N/A   Scattered Clouds
4:55 AM 37.4 °F 32.8 °F 32.5 °F 83% 30.21 in 10.0 mi ENE 5.8 mph - N/A   Scattered Clouds
5:15 AM 37.4 °F 32.1 °F 32.7 °F 83% 30.20 in 10.0 mi NE 6.9 mph - N/A   Mostly Cloudy
5:35 AM 37.4 °F 30.8 °F 32.4 °F 82% 30.21 in 10.0 mi NE 9.2 mph - N/A   Overcast
5:55 AM 37.0 °F 31.0 °F 32.0 °F 82% 30.22 in 10.0 mi NE 8.1 mph - N/A   Overcast
6:15 AM 36.5 °F 29.7 °F 31.3 °F 81% 30.22 in 10.0 mi NE 9.2 mph 17.3 mph N/A   Overcast
6:35 AM 36.5 °F 28.2 °F 30.2 °F 78% 30.23 in 10.0 mi NE 12.7 mph 19.6 mph N/A   Overcast
6:55 AM 36.0 °F 27.1 °F 29.3 °F 77% 30.24 in 10.0 mi NE 13.8 mph 23.0 mph N/A   Overcast
7:15 AM 35.8 °F 28.3 °F 28.8 °F 76% 30.23 in 10.0 mi NE 10.4 mph 19.6 mph N/A   Overcast
7:35 AM 35.8 °F 27.8 °F 27.7 °F 72% 30.25 in 10.0 mi NE 11.5 mph 18.4 mph N/A   Overcast
7:55 AM 35.8 °F 27.3 °F 27.0 °F 70% 30.25 in 10.0 mi NNE 12.7 mph 19.6 mph N/A   Overcast
8:15 AM 36.0 °F 28.5 °F 26.1 °F 67% 30.24 in 10.0 mi NE 10.4 mph 20.7 mph N/A   Overcast
8:35 AM 36.0 °F 28.5 °F 25.2 °F 65% 30.24 in 10.0 mi NE 10.4 mph 19.6 mph N/A   Overcast
8:55 AM 36.1 °F 28.7 °F 25.5 °F 65% 30.25 in 10.0 mi NE 10.4 mph 17.3 mph N/A   Overcast
9:15 AM 36.5 °F 29.2 °F 25.3 °F 64% 30.25 in 10.0 mi NNE 10.4 mph 17.3 mph N/A   Overcast
9:35 AM 36.5 °F 28.7 °F 25.0 °F 63% 30.25 in 10.0 mi NNE 11.5 mph 18.4 mph N/A   Overcast
9:55 AM 36.7 °F 28.4 °F 24.6 °F 62% 30.25 in 10.0 mi NNE 12.7 mph 16.1 mph N/A   Overcast
10:10 AM 36.7 °F 28.9 °F 24.4 °F 61% 30.25 in 10.0 mi NE 11.5 mph 17.3 mph N/A   Overcast
10:35 AM 36.7 °F 29.9 °F 25.0 °F 63% 30.24 in 10.0 mi NNE 9.2 mph 21.9 mph N/A   Overcast
10:55 AM 36.5 °F 30.3 °F 27.1 °F 69% 30.23 in 10.0 mi NE 8.1 mph 20.7 mph N/A   Overcast
11:15 AM 35.8 °F 29.4 °F 28.8 °F 76% 30.23 in 10.0 mi NE 8.1 mph - N/A   Overcast
11:35 AM 34.9 °F 29.9 °F 30.2 °F 83% 30.23 in 7.0 mi NE 5.8 mph - N/A   Overcast
11:55 AM 34.2 °F 28.2 °F 32.0 °F 92% 30.21 in 5.0 mi NE 6.9 mph - N/A   Overcast
12:15 PM 34.2 °F 26.8 °F 32.0 °F 92% 30.20 in 7.0 mi NE 9.2 mph - N/A   Overcast
12:35 PM 34.2 °F 27.5 °F 32.4 °F 93% 30.19 in 7.0 mi NE 8.1 mph - N/A   Overcast
12:55 PM 34.2 °F 27.5 °F 32.4 °F 93% 30.17 in 10.0 mi NE 8.1 mph - N/A   Overcast
1:15 PM 34.3 °F 26.5 °F 33.1 °F 95% 30.15 in 7.0 mi NE 10.4 mph 17.3 mph N/A   Overcast
1:35 PM 34.7 °F 28.8 °F 33.8 °F 97% 30.13 in 5.0 mi NE 6.9 mph - N/A   Overcast
1:55 PM 34.9 °F 27.1 °F 34.7 °F 99% 30.12 in 5.0 mi NE 10.4 mph - N/A   Overcast
2:15 PM 34.9 °F 27.7 °F 34.3 °F 98% 30.10 in 5.0 mi NE 9.2 mph - N/A   Overcast
2:35 PM 35.1 °F 24.8 °F 34.3 °F 97% 30.08 in 5.0 mi NE 17.3 mph 23.0 mph N/A   Overcast
2:55 PM 34.9 °F 28.3 °F 34.7 °F 99% 30.06 in 7.0 mi NE 8.1 mph 21.9 mph N/A   Overcast
3:15 PM 35.1 °F 25.5 °F 34.2 °F 97% 30.08 in 10.0 mi NE 15.0 mph 24.2 mph N/A   Overcast
3:35 PM 34.9 °F 27.1 °F 34.7 °F 99% 30.09 in 7.0 mi NNE 10.4 mph 17.3 mph N/A   Overcast
3:55 PM 34.7 °F 24.7 °F 34.7 °F 100% 30.08 in 5.0 mi NNE 16.1 mph 23.0 mph N/A   Overcast
4:15 PM 34.7 °F 24.3 °F 34.7 °F 100% 30.07 in 1.5 mi NNE 17.3 mph 20.7 mph N/A   Overcast
4:35 PM 34.3 °F 25.9 °F 34.3 °F 100% 30.06 in 1.8 mi NNE 11.5 mph 20.7 mph N/A   Overcast
4:55 PM 34.2 °F 26.2 °F 34.2 °F 100% 30.06 in 1.8 mi NNE 10.4 mph 17.3 mph N/A   Overcast
5:15 PM 34.2 °F 26.2 °F 34.2 °F 100% 30.05 in 0.8 mi NNE 10.4 mph 20.7 mph N/A   Overcast
5:35 PM 34.2 °F 27.5 °F 34.2 °F 100% 30.06 in 1.2 mi North 8.1 mph 17.3 mph N/A   Overcast
5:55 PM 34.2 °F 26.8 °F 34.2 °F 100% 30.06 in 1.0 mi North 9.2 mph 17.3 mph N/A   Overcast
6:15 PM 34.0 °F 26.0 °F 34.0 °F 100% 30.07 in 2.5 mi North 10.4 mph 18.4 mph N/A   Overcast
6:30 PM 34.2 °F 26.8 °F 34.2 °F 100% 30.06 in 3.0 mi North 9.2 mph 16.1 mph N/A   Overcast
6:55 PM 34.2 °F 24.8 °F 34.2 °F 100% 30.06 in 2.0 mi NNE 13.8 mph 19.6 mph N/A   Overcast
7:15 PM 34.0 °F 25.5 °F 34.0 °F 100% 30.05 in 2.0 mi NNE 11.5 mph 24.2 mph N/A   Overcast
7:35 PM 34.3 °F 25.9 °F 34.3 °F 100% 30.06 in 2.0 mi North 11.5 mph 16.1 mph N/A   Overcast
7:55 PM 34.3 °F 25.9 °F 34.3 °F 100% 30.05 in 2.0 mi NE 11.5 mph 19.6 mph N/A   Overcast
8:15 PM 34.3 °F 26.5 °F 34.3 °F 100% 30.06 in 2.0 mi North 10.4 mph 17.3 mph N/A   Overcast
8:35 PM 34.3 °F 26.5 °F 34.3 °F 100% 30.06 in 1.8 mi NNE 10.4 mph 19.6 mph N/A   Overcast
8:55 PM 34.2 °F 26.2 °F 34.2 °F 100% 30.05 in 2.0 mi NNE 10.4 mph 19.6 mph N/A   Overcast
9:15 PM 34.3 °F 25.5 °F 34.3 °F 100% 30.04 in 1.8 mi North 12.7 mph 18.4 mph N/A   Overcast
9:35 PM 34.3 °F 25.9 °F 34.3 °F 100% 30.03 in 2.0 mi NNE 11.5 mph 19.6 mph N/A   Overcast
9:55 PM 34.3 °F 26.5 °F 34.3 °F 100% 30.03 in 1.2 mi North 10.4 mph 18.4 mph N/A   Overcast
10:15 PM 34.2 °F 26.8 °F 34.2 °F 100% 30.03 in 2.0 mi NNE 9.2 mph - N/A   Overcast
10:35 PM 34.3 °F 31.4 °F 34.3 °F 100% 30.02 in 2.0 mi NNE 3.5 mph - N/A   Overcast
10:55 PM 34.3 °F 26.5 °F 34.3 °F 100% 30.00 in 3.0 mi NNE 10.4 mph 17.3 mph N/A   Overcast
11:15 PM 34.7 °F 26.9 °F 34.7 °F 100% 29.99 in 7.0 mi NNE 10.4 mph 17.3 mph N/A   Overcast
11:35 PM 34.7 °F 26.9 °F 34.7 °F 100% 29.99 in 10.0 mi NNE 10.4 mph - N/A   Overcast
11:55 PM 34.9 °F 28.3 °F 34.9 °F 100% 29.99 in 4.0 mi NNE 8.1 mph 17.3 mph N/A   Overcast